This demonstration page uses our WeatherBlox Daily Observations layout. Learn more.

Left ArrowRight Arrow

40.92945, -100.16068

Hourly Observations for April 3, 2020

Temp ( °F °C ) Dew Point ( °F °C ) Humidity (%) Winds ( mph kmh ) Pressure ( in mb ) Visibility ( mi km ) Precip ( " mm )
12:15 am 00:15 Cloudy 21 -6.1 17 -8.2 85 85 NNW 15 24 30.35 1028 10 16 0.00 0.00
12:35 am 00:35 Cloudy 21 -6 17 -8.2 85 85 NNW 20 31 30.35 1028 10 16 0.00 0.00
12:55 am 00:55 Cloudy 21 -6.1 17 -8.3 85 85 N 15 24 30.35 1028 10 16 0.00 0.00
1:15 am 01:15 Cloudy 21 -6.3 16 -8.7 83 83 NNW 13 20 30.37 1029 10 16 0.00 0.00
1:35 am 01:35 Cloudy 20 -6.5 16 -9 83 83 N 16 26 30.37 1029 10 16 0.00 0.00
1:55 am 01:55 Cloudy 20 -6.5 16 -8.9 83 83 NNW 15 24 30.37 1029 10 16 0.00 0.00
2:15 am 02:15 Cloudy 20 -6.5 16 -8.7 85 85 NNW 14 22 30.37 1029 10 16 0.00 0.00
2:35 am 02:35 Cloudy 20 -6.5 16 -8.8 84 84 NNW 18 30 30.36 1028 10 16 0.00 0.00
2:55 am 02:55 Mostly Cloudy 20 -6.8 15 -9.5 81 81 NNW 18 30 30.37 1028 10 16 0.00 0.00
3:15 am 03:15 Cloudy 19 -7 15 -9.4 83 83 NNW 14 22 30.38 1029 10 16 0.00 0.00
3:35 am 03:35 Cloudy 20 -6.8 15 -9.7 80 80 NNW 18 30 30.38 1029 10 16 0.00 0.00
3:55 am 03:55 Cloudy 19 -7.1 14 -10.1 79 79 NNW 17 28 30.38 1029 10 16 0.00 0.00
4:15 am 04:15 Cloudy 19 -7.1 14 -10.2 79 79 NNW 20 31 30.37 1028 10 16 0.00 0.00
4:35 am 04:35 Cloudy 19 -7.1 13 -10.5 77 77 NNW 22 35 30.38 1029 10 16 0.00 0.00
4:55 am 04:55 Cloudy 19 -7.3 13 -10.5 78 78 NNW 18 30 30.38 1029 10 16 0.00 0.00
5:15 am 05:15 Mostly Cloudy 19 -7.5 13 -10.4 80 80 NNW 14 22 30.38 1029 10 16 0.00 0.00
5:35 am 05:35 Mostly Cloudy 19 -7.5 13 -10.4 80 80 NNW 15 24 30.38 1029 10 16 0.00 0.00
5:55 am 05:55 Cloudy 19 -7.5 13 -10.4 80 80 NNW 14 22 30.40 1029 10 16 0.00 0.00
6:15 am 06:15 Cloudy 18 -7.6 13 -10.8 78 78 NNW 15 24 30.42 1030 10 16 0.00 0.00
6:35 am 06:35 Cloudy 19 -7.5 12 -11 76 76 NNW 18 30 30.41 1030 10 16 0.00 0.00
6:55 am 06:55 Cloudy 19 -7.5 13 -10.6 79 79 NNW 15 24 30.42 1030 10 16 0.00 0.00
7:15 am 07:15 Cloudy 19 -7.5 13 -10.5 79 79 NNW 18 30 30.42 1030 10 16 0.00 0.00
7:35 am 07:35 Mostly Cloudy 18 -7.6 13 -10.7 79 79 NNW 18 30 30.43 1030 10 16 0.00 0.00
7:55 am 07:55 Mostly Cloudy 18 -7.8 12 -11 78 78 NNW 15 24 30.44 1031 10 16 0.00 0.00
8:15 am 08:15 Cloudy 18 -7.7 12 -11 77 77 NNW 18 30 30.44 1031 10 16 0.00 0.00
8:35 am 08:35 Cloudy 19 -7.4 13 -10.6 78 78 NNW 15 24 30.44 1031 10 16 0.00 0.00
8:55 am 08:55 Mostly Cloudy 19 -7.1 13 -10.8 75 75 NNW 16 26 30.44 1031 10 16 0.00 0.00
9:15 am 09:15 Partly Cloudy 21 -6 15 -9.7 75 75 NNW 20 31 30.43 1030 10 16 0.00 0.00
9:35 am 09:35 Sunny 21 -6.1 14 -10 74 74 NNW 15 24 30.43 1030 10 16 0.00 0.00
9:55 am 09:55 Sunny 22 -5.5 15 -9.6 73 73 N 20 31 30.43 1031 10 16 0.00 0.00
10:15 am 10:15 Sunny 23 -5 16 -9 74 74 NNW 15 24 30.43 1030 10 16 0.00 0.00
10:35 am 10:35 Sunny 25 -4.1 18 -7.7 76 76 N 14 22 30.43 1030 10 16 0.00 0.00
10:55 am 10:55 Sunny 24 -4.7 17 -8.6 74 74 NNW 15 24 30.44 1031 10 16 0.00 0.00
11:15 am 11:15 Sunny 25 -3.9 18 -7.9 74 74 N 12 19 30.43 1030 10 16 0.00 0.00
11:35 am 11:35 Sunny 26 -3.1 19 -7.4 73 73 N 14 22 30.42 1030 10 16 0.00 0.00
11:55 am 11:55 Sunny 28 -2.4 20 -6.7 73 73 NNW 14 22 30.40 1030 10 16 0.00 0.00
12:15 pm 12:15 Sunny 29 -1.9 20 -6.4 72 72 N 12 19 30.40 1029 10 16 0.00 0.00
12:35 pm 12:35 Sunny 30 -1.3 21 -6 71 71 N 15 24 30.38 1029 10 16 0.00 0.00
12:55 pm 12:55 Sunny 31 -0.3 23 -5.2 70 70 N 15 24 30.37 1028 10 16 0.00 0.00
1:15 pm 13:15 Sunny 32 0 23 -5 69 69 N 16 26 30.36 1028 10 16 0.00 0.00
1:35 pm 13:35 Partly Cloudy 32 0.1 23 -4.9 69 69 N 13 20 30.35 1028 10 16 0.00 0.00
1:55 pm 13:55 Sunny 33 0.8 24 -4.5 68 68 NW 13 20 30.33 1027 10 16 0.00 0.00
2:15 pm 14:15 Partly Cloudy 34 1.3 24 -4.5 66 66 N 10 17 30.32 1027 10 16 0.00 0.00
2:35 pm 14:35 Partly Cloudy 35 1.8 24 -4.2 65 65 N 14 22 30.31 1026 10 16 0.00 0.00
2:55 pm 14:55 Sunny 36 2.1 24 -4.2 63 63 N 12 19 30.30 1026 10 16 0.00 0.00
3:15 pm 15:15 Sunny 37 2.7 25 -3.8 63 63 N 12 19 30.28 1025 10 16 0.00 0.00
3:55 pm 15:55 Sunny 38 3.2 24 -4.3 58 58 NNE 7 11 30.27 1025 10 16 0.00 0.00
4:15 pm 16:15 Sunny 39 3.8 25 -3.9 58 58 NNE 10 17 30.26 1025 10 16 0.00 0.00
4:35 pm 16:35 Sunny 39 3.7 24 -4.2 57 57 N 7 11 30.25 1024 10 16 0.00 0.00
4:55 pm 16:55 Sunny 39 3.9 24 -4.3 55 55 N 8 13 30.25 1024 10 16 0.00 0.00
5:15 pm 17:15 Sunny 40 4.3 25 -4.1 55 55 NNE 9 15 30.25 1024 10 16 0.00 0.00
5:35 pm 17:35 Sunny 40 4.4 24 -4.2 54 54 N 8 13 30.24 1024 10 16 0.00 0.00
5:55 pm 17:55 Sunny 40 4.4 24 -4.2 54 54 NNE 9 15 30.24 1024 10 16 0.00 0.00
6:15 pm 18:15 Sunny 40 4.2 24 -4.6 53 53 NNE 8 13 30.25 1024 10 16 0.00 0.00
6:35 pm 18:35 Sunny 39 4.1 24 -4.2 55 55 NE 8 13 30.25 1024 10 16 0.00 0.00
6:55 pm 18:55 Sunny 39 3.9 25 -4 57 57 NE 9 15 30.25 1024 10 16 0.00 0.00
7:15 pm 19:15 Sunny 38 3.2 24 -4.3 58 58 NE 10 17 30.26 1025 10 16 0.00 0.00
7:35 pm 19:35 Sunny 37 2.6 24 -4.5 60 60 NE 8 13 30.27 1025 10 16 0.00 0.00
7:55 pm 19:55 Sunny 35 1.5 25 -4 67 67 NE 8 13 30.27 1025 10 16 0.00 0.00
8:15 pm 20:15 Clear 32 0.2 25 -4.1 73 73 ENE 7 11 30.29 1026 10 16 0.00 0.00
8:35 pm 20:35 Clear 31 -0.8 24 -4.2 78 78 ENE 7 11 30.30 1026 10 16 0.00 0.00
8:55 pm 20:55 Clear 30 -1.3 24 -4.5 79 79 E 7 11 30.31 1026 10 16 0.00 0.00
9:15 pm 21:15 Clear 29 -1.5 24 -4.5 80 80 ENE 8 13 30.32 1027 10 16 0.00 0.00
9:35 pm 21:35 Clear 28 -2 24 -4.6 83 83 E 8 13 30.33 1027 10 16 0.00 0.00
9:55 pm 21:55 Clear 28 -2.5 24 -4.7 85 85 ENE 7 11 30.34 1028 10 16 0.00 0.00
10:15 pm 22:15 Clear 28 -2.5 24 -4.6 86 86 ENE 8 13 30.35 1028 10 16 0.00 0.00
10:35 pm 22:35 Clear 27 -3 24 -4.7 88 88 E 8 13 30.37 1028 10 16 0.00 0.00
10:55 pm 22:55 Clear 26 -3.2 23 -4.8 89 89 E 7 11 30.37 1028 10 16 0.00 0.00
11:15 pm 23:15 Clear 26 -3.3 23 -5 88 88 E 7 11 30.37 1028 10 16 0.00 0.00
11:35 pm 23:35 Clear 26 -3.5 23 -5.1 89 89 E 10 17 30.37 1029 10 16 0.00 0.00
11:55 pm 23:55 Clear 25 -4 22 -5.5 89 89 E 8 13 30.38 1029 10 16 0.00 0.00

Powered by AerisWeather